Cadjehoun Airport

Jump to: basic info | weather | frequencies | runways | comments

Related pages: nearby airports | nearby navaids | notams | map

Basic information (top)

Codes: COO DBBB
Location: lon 6.357230, lat 2.384350, elev 19 ft / 6 m msl
Status: medium_airport
Scheduled airline service: yes
Links: Wikipedia Mobile

Weather (top)

Current conditions (rec'd 2014/07/31 07:00Z):

DBBB 310700Z 23010KT 9999 SCT011 25/25 Q1014 NOSIG

Airport forecast (rec'd 2014/07/31 06:00Z):

TAF DBBB 310500Z 3106/0112 22012KT 9999 SCT012 
      TEMPO 3106/3111 BKN010 PROB30 4000 RA 
      TEMPO 0103/0108 BKN010

Frequencies (top)

Verify before use: may be inaccurate or out of date.

A/G: 658.6 MHz (A/G VOICE RDO)
APP: 125.9 MHz (APP)
TWR: 125.9 MHz (TWR)

Runways (top)

06/24: 7,874 x 148 ft (2,400 x 45 m) — paved — lighted — threshold 06 displaced 125 ft (38 m)

Latest comments (top)

No comments yet for Cadjehoun Airport

More... (top)

See also NOTAMs and nearby airports and navaids, or visit the Cadjehoun Airport page at the main OurAirports website..